| time (UTC) | temp F | wind direction | speed MPH | gust MPH | rain 1hr in | rain 24hr in | rain mn in | humidity % | barometer mb |
| 20260505030111 | 61 | 56 | 3.0 | 11.0 | 0.00 | 0.00 | 0.00 | 51 | 1032.0 |
| 20260505025610 | 61 | 77 | 3.0 | 12.0 | 0.00 | 0.00 | 0.00 | 51 | 1032.0 |
| 20260505025113 | 61 | 50 | 5.0 | 12.0 | 0.00 | 0.00 | 0.00 | 51 | 1032.0 |
| 20260505024615 | 61 | 15 | 3.0 | 7.0 | 0.00 | 0.00 | 0.00 | 51 | 1032.1 |
| 20260505024136 | 61 | 71 | 2.0 | 9.0 | 0.00 | 0.00 | 0.00 | 51 | 1032.0 |
| 20260505023637 | 61 | 83 | 4.0 | 11.0 | 0.00 | 0.00 | 0.00 | 50 | 1032.1 |
| 20260505023058 | 62 | 55 | 4.0 | 11.0 | 0.00 | 0.00 | 0.00 | 50 | 1032.1 |
| 20260505022558 | 62 | 100 | 4.0 | 13.0 | 0.00 | 0.00 | 0.00 | 50 | 1032.0 |
| 20260505022100 | 62 | 61 | 6.0 | 13.0 | 0.00 | 0.00 | 0.00 | 49 | 1032.1 |
| 20260505021602 | 62 | 49 | 5.0 | 14.0 | 0.00 | 0.00 | 0.00 | 49 | 1032.0 |
| 20260505021100 | 63 | 79 | 6.0 | 14.0 | 0.00 | 0.00 | 0.00 | 49 | 1032.0 |
| 20260505020615 | 63 | 34 | 6.0 | 11.0 | 0.00 | 0.00 | 0.00 | 49 | 1031.9 |
| 20260505020057 | 63 | 63 | 5.0 | 12.0 | 0.00 | 0.00 | 0.00 | 48 | 1031.8 |
| 20260505015559 | 63 | 67 | 6.0 | 12.0 | 0.00 | 0.00 | 0.00 | 48 | 1031.7 |
| 20260505015100 | 63 | 62 | 3.0 | 13.0 | 0.00 | 0.00 | 0.00 | 48 | 1031.7 |
| 20260505014604 | 63 | 79 | 7.0 | 13.0 | 0.00 | 0.00 | 0.00 | 47 | 1031.7 |
| 20260505014106 | 63 | 62 | 3.0 | 9.0 | 0.00 | 0.00 | 0.00 | 47 | 1031.5 |
| 20260505013607 | 64 | 37 | 3.0 | 11.0 | 0.00 | 0.00 | 0.00 | 47 | 1031.5 |
| 20260505013109 | 64 | 84 | 5.0 | 11.0 | 0.00 | 0.00 | 0.00 | 46 | 1031.4 |
| 20260505012630 | 64 | 15 | 3.0 | 10.0 | 0.00 | 0.00 | 0.00 | 46 | 1031.3 |
| 20260505012110 | 64 | 52 | 6.0 | 10.0 | 0.00 | 0.00 | 0.00 | 46 | 1031.3 |
| 20260505011633 | 64 | 37 | 5.0 | 9.0 | 0.00 | 0.00 | 0.00 | 46 | 1031.2 |
| 20260505011111 | 64 | 62 | 4.0 | 12.0 | 0.00 | 0.00 | 0.00 | 45 | 1031.0 |
| 20260505010612 | 64 | 55 | 5.0 | 12.0 | 0.00 | 0.00 | 0.00 | 44 | 1030.9 |
| 20260505010117 | 63 | 19 | 4.0 | 11.0 | 0.00 | 0.00 | 0.00 | 45 | 1030.8 |
| 20260505005557 | 62 | 344 | 5.0 | 10.0 | 0.00 | 0.00 | 0.00 | 47 | 1030.7 |
| 20260505005115 | 60 | 60 | 0.0 | 2.0 | 0.00 | 0.00 | 0.00 | 49 | 1030.5 |
| 20260505004559 | 61 | 34 | 0.0 | 0.0 | 0.00 | 0.00 | 0.00 | 46 | 1030.3 |
| 20260505004100 | 62 | 34 | 0.0 | 0.0 | 0.00 | 0.00 | 0.00 | 45 | 1030.1 |
| 20260505003601 | 62 | 34 | 0.0 | 0.0 | 0.00 | 0.00 | 0.00 | 44 | 1030.1 |
| 20260505003105 | 63 | 34 | 0.0 | 0.0 | 0.00 | 0.00 | 0.00 | 43 | 1030.0 |
| 20260505002606 | 63 | 34 | 0.0 | 0.0 | 0.00 | 0.00 | 0.00 | 43 | 1029.9 |
| 20260505002108 | 64 | 34 | 0.0 | 0.0 | 0.00 | 0.00 | 0.00 | 43 | 1029.8 |
| 20260505001611 | 64 | 34 | 0.0 | 0.0 | 0.00 | 0.00 | 0.00 | 41 | 1029.6 |
| 20260505001132 | 64 | 34 | 0.0 | 0.0 | 0.00 | 0.00 | 0.00 | 41 | 1029.6 |
| 20260505000612 | 65 | 34 | 0.0 | 0.0 | 0.00 | 0.00 | 0.00 | 41 | 1029.5 |
| 20260505000116 | 66 | 34 | 0.0 | 2.0 | 0.00 | 0.00 | 0.00 | 39 | 1029.4 |
| 20260504235557 | 66 | 34 | 0.0 | 2.0 | 0.00 | 0.00 | 0.00 | 38 | 1029.4 |
| 20260504235058 | 67 | 128 | 0.0 | 0.0 | 0.00 | 0.00 | 0.00 | 37 | 1029.3 |
| 20260504234600 | 67 | 128 | 0.0 | 1.0 | 0.00 | 0.00 | 0.00 | 36 | 1029.3 |
| 20260504234102 | 67 | 128 | 0.0 | 1.0 | 0.00 | 0.00 | 0.00 | 36 | 1029.2 |
| 20260504233603 | 68 | 87 | 0.0 | 1.0 | 0.00 | 0.00 | 0.00 | 36 | 1029.1 |
| 20260504233105 | 69 | 121 | 0.0 | 3.0 | 0.00 | 0.00 | 0.00 | 35 | 1029.1 |
| 20260504232606 | 69 | 121 | 1.0 | 3.0 | 0.00 | 0.00 | 0.00 | 34 | 1029.0 |
| 20260504232128 | 69 | 96 | 1.0 | 4.0 | 0.00 | 0.00 | 0.00 | 34 | 1029.0 |
| 20260504231610 | 70 | 157 | 0.0 | 4.0 | 0.00 | 0.00 | 0.00 | 34 | 1028.8 |
| 20260504231111 | 70 | 90 | 0.0 | 3.0 | 0.00 | 0.00 | 0.00 | 34 | 1028.8 |
| 20260504230610 | 70 | 128 | 1.0 | 5.0 | 0.00 | 0.00 | 0.00 | 33 | 1028.7 |
| 20260504230113 | 70 | 57 | 0.0 | 7.0 | 0.00 | 0.00 | 0.00 | 32 | 1028.7 |
| 20260504225613 | 71 | 143 | 3.0 | 7.0 | 0.00 | 0.00 | 0.00 | 32 | 1028.7 |
| 20260504225135 | 71 | 46 | 1.0 | 11.0 | 0.00 | 0.00 | 0.00 | 32 | 1028.7 |
| 20260504224658 | 71 | 81 | 2.0 | 11.0 | 0.00 | 0.00 | 0.00 | 33 | 1028.5 |
| 20260504224135 | 71 | 117 | 1.0 | 8.0 | 0.00 | 0.00 | 0.00 | 32 | 1028.4 |
| 20260504223615 | 71 | 136 | 1.0 | 9.0 | 0.00 | 0.00 | 0.00 | 32 | 1028.4 |
| 20260504223057 | 71 | 120 | 3.0 | 9.0 | 0.00 | 0.00 | 0.00 | 32 | 1028.4 |
| 20260504222558 | 71 | 128 | 1.0 | 6.0 | 0.00 | 0.00 | 0.00 | 32 | 1028.4 |
| 20260504222121 | 71 | 96 | 2.0 | 5.0 | 0.00 | 0.00 | 0.00 | 32 | 1028.3 |
| 20260504221624 | 72 | 117 | 1.0 | 3.0 | 0.00 | 0.00 | 0.00 | 32 | 1028.4 |
| 20260504221123 | 72 | 91 | 1.0 | 5.0 | 0.00 | 0.00 | 0.00 | 32 | 1028.4 |
| 20260504220603 | 72 | 103 | 1.0 | 7.0 | 0.00 | 0.00 | 0.00 | 32 | 1028.5 |
| 20260504220125 | 72 | 117 | 2.0 | 6.0 | 0.00 | 0.00 | 0.00 | 30 | 1028.6 |
| 20260504215605 | 72 | 111 | 3.0 | 10.0 | 0.00 | 0.00 | 0.00 | 30 | 1028.4 |
| 20260504215106 | 72 | 105 | 5.0 | 10.0 | 0.00 | 0.00 | 0.00 | 30 | 1028.5 |
| 20260504214608 | 72 | 99 | 5.0 | 14.0 | 0.00 | 0.00 | 0.00 | 30 | 1028.4 |
| 20260504214130 | 72 | 96 | 4.0 | 14.0 | 0.00 | 0.00 | 0.00 | 30 | 1028.4 |
| 20260504213629 | 73 | 76 | 4.0 | 11.0 | 0.00 | 0.00 | 0.00 | 29 | 1028.5 |
| 20260504213111 | 72 | 105 | 2.0 | 9.0 | 0.00 | 0.00 | 0.00 | 31 | 1028.4 |
| 20260504212610 | 73 | 129 | 5.0 | 9.0 | 0.00 | 0.00 | 0.00 | 29 | 1028.4 |
| 20260504212110 | 72 | 60 | 3.0 | 8.0 | 0.00 | 0.00 | 0.00 | 30 | 1028.2 |
| 20260504211613 | 72 | 119 | 3.0 | 8.0 | 0.00 | 0.00 | 0.00 | 31 | 1028.4 |
| 20260504211113 | 71 | 125 | 4.0 | 8.0 | 0.00 | 0.00 | 0.00 | 31 | 1028.4 |
| 20260504210615 | 71 | 81 | 3.0 | 9.0 | 0.00 | 0.00 | 0.00 | 31 | 1028.3 |
| 20260504210058 | 72 | 109 | 4.0 | 9.0 | 0.00 | 0.00 | 0.00 | 30 | 1028.3 |
| 20260504205558 | 72 | 105 | 1.0 | 19.0 | 0.00 | 0.00 | 0.00 | 30 | 1028.2 |
| 20260504205120 | 72 | 130 | 3.0 | 19.0 | 0.00 | 0.00 | 0.00 | 30 | 1028.1 |
| 20260504204602 | 72 | 107 | 2.0 | 7.0 | 0.00 | 0.00 | 0.00 | 32 | 1028.2 |
| 20260504204123 | 71 | 143 | 1.0 | 10.0 | 0.00 | 0.00 | 0.00 | 32 | 1028.2 |
| 20260504203622 | 71 | 88 | 3.0 | 10.0 | 0.00 | 0.00 | 0.00 | 31 | 1028.3 |
| 20260504203105 | 71 | 89 | 2.0 | 6.0 | 0.00 | 0.00 | 0.00 | 31 | 1028.3 |
| 20260504202625 | 71 | 133 | 3.0 | 10.0 | 0.00 | 0.00 | 0.00 | 30 | 1028.3 |
| 20260504202125 | 71 | 26 | 4.0 | 10.0 | 0.00 | 0.00 | 0.00 | 29 | 1028.2 |
| 20260504201628 | 71 | 198 | 2.0 | 12.0 | 0.00 | 0.00 | 0.00 | 31 | 1028.2 |
| 20260504201107 | 71 | 107 | 6.0 | 12.0 | 0.00 | 0.00 | 0.00 | 30 | 1028.2 |
| 20260504200608 | 71 | 119 | 1.0 | 10.0 | 0.00 | 0.00 | 0.00 | 31 | 1028.4 |
| 20260504200131 | 71 | 69 | 3.0 | 10.0 | 0.00 | 0.00 | 0.00 | 30 | 1028.3 |
| 20260504195610 | 72 | 128 | 4.0 | 10.0 | 0.00 | 0.00 | 0.00 | 29 | 1028.3 |
| 20260504195108 | 72 | 138 | 2.0 | 13.0 | 0.00 | 0.00 | 0.00 | 28 | 1028.4 |
| 20260504194627 | 72 | 125 | 5.0 | 16.0 | 0.00 | 0.00 | 0.00 | 28 | 1028.5 |
| 20260504194100 | 73 | 138 | 5.0 | 16.0 | 0.00 | 0.00 | 0.00 | 29 | 1028.2 |
| 20260504193602 | 73 | 122 | 6.0 | 12.0 | 0.00 | 0.00 | 0.00 | 28 | 1028.4 |
| 20260504193104 | 73 | 39 | 4.0 | 16.0 | 0.00 | 0.00 | 0.00 | 28 | 1028.3 |
| 20260504192603 | 73 | 89 | 6.0 | 16.0 | 0.00 | 0.00 | 0.00 | 29 | 1028.4 |
| 20260504192104 | 73 | 124 | 4.0 | 16.0 | 0.00 | 0.00 | 0.00 | 29 | 1028.3 |
| 20260504191127 | 73 | 62 | 4.0 | 17.0 | 0.00 | 0.00 | 0.00 | 29 | 1028.6 |
| 20260504190607 | 73 | 58 | 5.0 | 13.0 | 0.00 | 0.00 | 0.00 | 29 | 1028.6 |
| 20260504190109 | 73 | 171 | 7.0 | 13.0 | 0.00 | 0.00 | 0.00 | 29 | 1028.8 |
| 20260504185610 | 73 | 71 | 4.0 | 9.0 | 0.00 | 0.00 | 0.00 | 28 | 1028.6 |
| 20260504185110 | 72 | 110 | 3.0 | 15.0 | 0.00 | 0.00 | 0.00 | 31 | 1028.7 |
| 20260504184113 | 72 | 71 | 4.0 | 11.0 | 0.00 | 0.00 | 0.00 | 30 | 1028.8 |
| 20260504183614 | 72 | 115 | 3.0 | 13.0 | 0.00 | 0.00 | 0.00 | 30 | 1028.8 |
| 20260504183136 | 71 | 137 | 6.0 | 13.0 | 0.00 | 0.00 | 0.00 | 30 | 1028.9 |
| 20260504182556 | 71 | 119 | 6.0 | 17.0 | 0.00 | 0.00 | 0.00 | 30 | 1028.9 |
| 20260504182057 | 71 | 105 | 8.0 | 17.0 | 0.00 | 0.00 | 0.00 | 30 | 1028.9 |
| 20260504181600 | 71 | 37 | 7.0 | 17.0 | 0.00 | 0.00 | 0.00 | 31 | 1029.0 |
| 20260504181101 | 70 | 86 | 7.0 | 17.0 | 0.00 | 0.00 | 0.00 | 30 | 1028.9 |
| 20260504180602 | 70 | 121 | 7.0 | 13.0 | 0.00 | 0.00 | 0.00 | 29 | 1028.8 |
| 20260504180105 | 71 | 127 | 5.0 | 13.0 | 0.00 | 0.00 | 0.00 | 30 | 1029.0 |
| 20260504175625 | 71 | 129 | 5.0 | 17.0 | 0.00 | 0.00 | 0.00 | 31 | 1029.1 |
| 20260504175123 | 70 | 134 | 8.0 | 17.0 | 0.00 | 0.00 | 0.00 | 30 | 1029.0 |
| 20260504174559 | 70 | 74 | 3.0 | 15.0 | 0.00 | 0.00 | 0.00 | 32 | 1029.0 |
| 20260504174057 | 70 | 102 | 4.0 | 15.0 | 0.00 | 0.00 | 0.00 | 31 | 1029.1 |
| 20260504173612 | 70 | 113 | 4.0 | 13.0 | 0.00 | 0.00 | 0.00 | 33 | 1029.2 |
| 20260504173113 | 70 | 53 | 6.0 | 17.0 | 0.00 | 0.00 | 0.00 | 32 | 1029.1 |
| 20260504172613 | 69 | 96 | 6.0 | 21.0 | 0.00 | 0.00 | 0.00 | 33 | 1029.2 |
| 20260504172115 | 69 | 115 | 5.0 | 21.0 | 0.00 | 0.00 | 0.00 | 33 | 1029.2 |
| 20260504171618 | 69 | 86 | 3.0 | 13.0 | 0.00 | 0.00 | 0.00 | 32 | 1029.3 |
| 20260504171057 | 69 | 56 | 7.0 | 13.0 | 0.00 | 0.00 | 0.00 | 33 | 1029.3 |
| 20260504170616 | 69 | 99 | 5.0 | 14.0 | 0.00 | 0.00 | 0.00 | 33 | 1029.4 |
| 20260504170140 | 68 | 70 | 7.0 | 14.0 | 0.00 | 0.00 | 0.00 | 33 | 1029.4 |
| 20260504151111 | 65 | 9 | 2.0 | 8.0 | 0.00 | 0.00 | 0.00 | 39 | 1030.2 |
| 20260504150611 | 65 | 81 | 3.0 | 10.0 | 0.00 | 0.00 | 0.00 | 37 | 1030.3 |
| 20260504150114 | 64 | 69 | 6.0 | 11.0 | 0.00 | 0.00 | 0.00 | 37 | 1030.4 |
| 20260504141104 | 62 | 120 | 7.0 | 12.0 | 0.00 | 0.03 | 0.00 | 41 | 1031.1 |
| 20260504140606 | 62 | 152 | 2.0 | 18.0 | 0.00 | 0.03 | 0.00 | 41 | 1031.2 |
| 20260504140109 | 62 | 117 | 5.0 | 12.0 | 0.00 | 0.03 | 0.00 | 42 | 1031.2 |
| 20260504130602 | 57 | 55 | 6.0 | 15.0 | 0.00 | 0.04 | 0.00 | 47 | 1031.9 |
| 20260504130105 | 57 | 39 | 5.0 | 12.0 | 0.00 | 0.04 | 0.00 | 48 | 1032.0 |
| 20260504110628 | 48 | 124 | 0.0 | 1.0 | 0.00 | 0.04 | 0.00 | 61 | 1032.9 |
| 20260504110109 | 47 | 98 | 0.0 | 2.0 | 0.00 | 0.04 | 0.00 | 60 | 1032.9 |
| 20260504100607 | 45 | 55 | 0.0 | 2.0 | 0.00 | 0.04 | 0.00 | 63 | 1032.8 |
| 20260504100108 | 44 | 66 | 0.0 | 2.0 | 0.00 | 0.04 | 0.00 | 63 | 1032.8 |
| 20260504090120 | 44 | 72 | 0.0 | 3.0 | 0.00 | 0.04 | 0.00 | 62 | 1032.6 |
| 20260504081610 | 44 | 68 | 0.0 | 0.0 | 0.00 | 0.04 | 0.00 | 63 | 1032.6 |
| 20260504081110 | 44 | 71 | 0.0 | 3.0 | 0.00 | 0.04 | 0.00 | 63 | 1032.7 |
| 20260504080631 | 44 | 79 | 0.0 | 3.0 | 0.00 | 0.04 | 0.00 | 63 | 1032.6 |
| 20260504080110 | 44 | 49 | 0.0 | 1.0 | 0.00 | 0.04 | 0.00 | 63 | 1032.6 |
| 20260504070105 | 42 | 54 | 0.0 | 2.0 | 0.00 | 0.04 | 0.00 | 65 | 1032.4 |
| 20260504060116 | 40 | 55 | 0.0 | 0.0 | 0.00 | 0.04 | 0.00 | 68 | 1032.5 |
| 20260504050607 | 37 | 55 | 0.0 | 0.0 | 0.00 | 0.04 | 0.00 | 72 | 1032.5 |
| 20260504050129 | 37 | 55 | 0.0 | 0.0 | 0.00 | 0.04 | 0.00 | 71 | 1032.5 |
| 20260504045609 | 38 | 55 | 0.0 | 0.0 | 0.00 | 0.04 | 0.00 | 71 | 1032.4 |
| 20260504045110 | 38 | 55 | 0.0 | 0.0 | 0.00 | 0.04 | 0.00 | 70 | 1032.4 |
| 20260504044613 | 38 | 55 | 0.0 | 0.0 | 0.00 | 0.04 | 0.00 | 70 | 1032.4 |
| 20260504044130 | 38 | 55 | 0.0 | 0.0 | 0.00 | 0.04 | 0.00 | 70 | 1032.5 |
| 20260504043630 | 38 | 55 | 0.0 | 0.0 | 0.00 | 0.04 | 0.00 | 69 | 1032.5 |
| 20260504043110 | 39 | 55 | 0.0 | 0.0 | 0.00 | 0.04 | 0.00 | 68 | 1032.5 |
| 20260504042611 | 39 | 55 | 0.0 | 0.0 | 0.00 | 0.04 | 0.00 | 69 | 1032.4 |
| 20260504042113 | 39 | 55 | 0.0 | 0.0 | 0.00 | 0.04 | 0.00 | 69 | 1032.4 |
| 20260504041615 | 39 | 55 | 0.0 | 0.0 | 0.00 | 0.04 | 0.00 | 69 | 1032.4 |
| 20260504041057 | 39 | 55 | 0.0 | 0.0 | 0.00 | 0.04 | 0.00 | 69 | 1032.3 |
| 20260504040557 | 39 | 55 | 0.0 | 0.0 | 0.00 | 0.04 | 0.00 | 69 | 1032.3 |
| 20260504040119 | 39 | 55 | 0.0 | 0.0 | 0.00 | 0.04 | 0.00 | 69 | 1032.3 |
| 20260504035611 | 39 | 55 | 0.0 | 0.0 | 0.00 | 0.04 | 0.04 | 69 | 1032.2 |
| 20260504035113 | 40 | 55 | 0.0 | 0.0 | 0.00 | 0.04 | 0.04 | 67 | 1032.2 |
| 20260504034615 | 40 | 55 | 0.0 | 0.0 | 0.00 | 0.04 | 0.04 | 66 | 1032.1 |
| 20260504034056 | 40 | 55 | 0.0 | 0.0 | 0.00 | 0.04 | 0.04 | 66 | 1032.2 |
| 20260504033559 | 40 | 55 | 0.0 | 0.0 | 0.00 | 0.04 | 0.04 | 66 | 1032.2 |
| 20260504033101 | 40 | 55 | 0.0 | 1.0 | 0.00 | 0.04 | 0.04 | 67 | 1032.1 |
| 20260504032623 | 40 | 55 | 0.0 | 1.0 | 0.00 | 0.04 | 0.04 | 67 | 1032.2 |
| 20260504032102 | 40 | 119 | 0.0 | 0.0 | 0.00 | 0.04 | 0.04 | 68 | 1032.2 |
| 20260504031605 | 40 | 119 | 0.0 | 0.0 | 0.00 | 0.04 | 0.04 | 68 | 1032.2 |
| 20260504031127 | 39 | 119 | 0.0 | 0.0 | 0.00 | 0.04 | 0.04 | 69 | 1032.2 |
| 20260504030608 | 39 | 119 | 0.0 | 0.0 | 0.00 | 0.04 | 0.04 | 69 | 1032.1 |